07.05.2024;06:00;14
07.05.2024;05:00;11
07.05.2024;04:00;8
07.05.2024;03:00;6
07.05.2024;02:00;6
07.05.2024;01:00;7
07.05.2024;00:00;8
06.05.2024;23:00;9
06.05.2024;22:00;11
06.05.2024;21:00;16
06.05.2024;20:00;15
06.05.2024;19:00;15
06.05.2024;18:00;17
06.05.2024;17:00;13
06.05.2024;16:00;12
06.05.2024;15:00;14
06.05.2024;14:00;10
06.05.2024;13:00;14
06.05.2024;12:00;#
06.05.2024;11:00;19
06.05.2024;10:00;18
06.05.2024;09:00;29
06.05.2024;08:00;24
06.05.2024;07:00;23
06.05.2024;06:00;15
06.05.2024;05:00;15
06.05.2024;04:00;14
06.05.2024;03:00;15
06.05.2024;02:00;17
06.05.2024;01:00;25
06.05.2024;00:00;35
05.05.2024;23:00;32
05.05.2024;22:00;28
05.05.2024;21:00;19
05.05.2024;20:00;10
05.05.2024;19:00;7
05.05.2024;18:00;6
05.05.2024;17:00;7
05.05.2024;16:00;9
05.05.2024;15:00;12
05.05.2024;14:00;6
05.05.2024;13:00;6
05.05.2024;12:00;7
05.05.2024;11:00;6
05.05.2024;10:00;8
05.05.2024;09:00;7
05.05.2024;08:00;11
05.05.2024;07:00;16
